Glasgow, United Kingdom

1:57 AM GMT on December 12, 2017 (GMT +0000)
Glasgow

Weather History for EGPF - January, 2012

Change the Weather History Date:

Saturday, January 14, 2012

  Actual Average Record
Temperature  
Mean Temperature 36 °F -  
Max Temperature 41 °F 43 °F 53 °F (2002)
Min Temperature 28 °F 33 °F 19 °F (2001)
Degree Days  
Heating Degree Days 30    
Moisture  
Dew Point 34 °F    
Average Humidity 90    
Maximum Humidity 100    
Minimum Humidity 76    
Precipitation  
Precipitation 0.00 in - - ()
Sea Level Pressure  
Sea Level Pressure 30.34 in    
Wind  
Wind Speed 3 mph ()    
Max Wind Speed 10 mph    
Max Gust Speed -    
Visibility 5.2 miles    
Events      
Averages and records for this station are not official NWS values.
T = Trace of Precipitation, MM = Missing Value Source: Averaged Metar Reports

Daily Weather History Graph

Daily Weather History Graph

Search for Another Location

Airport or City:

Trip Planner

Search our weather history database for the weather conditions in past years. The results will help you decide how hot, cold, wet, or windy it might be!

Date:

Astronomy

Jan. 14, 2012 Rise Set
Actual Time 8:39 AM GMT 4:13 PM GMT
Civil Twilight 7:55 AM GMT 4:58 PM GMT
Nautical Twilight 7:07 AM GMT 5:45 PM GMT
Astronomical Twilight 6:23 AM GMT 6:30 PM GMT
Moon 11:38 PM GMT (1/14) 10:05 AM GMT (1/14)
Length of Visible Light 9h 03m
Length of Day
7h 33m
Waning Gibbous, 71% of the Moon is Illuminated
Jan 14
Waning Gibbous
Jan 16
Last Quarter
Jan 23
New
Jan 31
First Quarter
Feb 7
Full

Hourly Weather History & Observations

Time (GMT) Temp. Windchill Dew Point Humidity Pressure Visibility Wind Dir Wind Speed Gust Speed Precip Events Conditions
12:20 AM 35.6 °F - 33.8 °F 93% 30.45 in 5.6 mi Calm Calm - N/A   Overcast
12:50 AM 35.6 °F - 33.8 °F 93% 30.45 in 5.0 mi Calm Calm - N/A   Overcast
1:20 AM 35.6 °F - 33.8 °F 93% 30.42 in 5.0 mi NE 2.3 mph - N/A   Overcast
1:50 AM 35.6 °F - 33.8 °F 93% 30.42 in 5.6 mi ENE 2.3 mph - N/A   Overcast
2:20 AM 35.6 °F 32.8 °F 33.8 °F 93% 30.42 in 6.2 mi NNE 3.5 mph - N/A   Overcast
2:50 AM 35.6 °F - 33.8 °F 93% 30.42 in 6.2 mi East 2.3 mph - N/A   Overcast
3:20 AM 35.6 °F - 33.8 °F 93% 30.42 in 5.6 mi Calm Calm - N/A   Overcast
3:50 AM 35.6 °F - 33.8 °F 93% 30.42 in 5.6 mi Calm Calm - N/A   Overcast
4:20 AM 35.6 °F - 33.8 °F 93% 30.39 in 5.6 mi Calm Calm - N/A   Overcast
4:50 AM 37.4 °F - 35.6 °F 93% 30.39 in 5.6 mi ENE 2.3 mph - N/A   Overcast
5:20 AM 37.4 °F 34.9 °F 35.6 °F 93% 30.39 in 5.6 mi ENE 3.5 mph - N/A   Overcast
5:50 AM 37.4 °F - 35.6 °F 93% 30.39 in 5.6 mi East 2.3 mph - N/A   Overcast
6:20 AM 37.4 °F - 35.6 °F 93% 30.36 in 5.6 mi Calm Calm - N/A   Overcast
6:50 AM 37.4 °F - 35.6 °F 93% 30.36 in 5.6 mi Variable 2.3 mph - N/A   Overcast
7:20 AM 37.4 °F - 35.6 °F 93% 30.36 in 5.6 mi Variable 2.3 mph - N/A   Overcast
7:50 AM 37.4 °F 34.9 °F 35.6 °F 93% 30.36 in 3.7 mi Variable 3.5 mph - N/A   Light Drizzle
8:20 AM 37.4 °F 33.8 °F 35.6 °F 93% 30.36 in 3.7 mi ENE 4.6 mph - N/A   Light Drizzle
8:50 AM 37.4 °F - 35.6 °F 93% 30.36 in 2.8 mi Variable 2.3 mph - N/A   Light Drizzle
9:20 AM 37.4 °F - 35.6 °F 93% 30.36 in - Variable 2.3 mph - N/A   Light Drizzle
9:50 AM 37.4 °F 34.9 °F 35.6 °F 93% 30.36 in - ENE 3.5 mph - N/A   Light Drizzle
10:20 AM 37.4 °F 34.9 °F 37.4 °F 100% 30.36 in 2.8 mi ENE 3.5 mph - N/A   Light Drizzle
10:50 AM 39.2 °F 35.9 °F 37.4 °F 93% 30.36 in 3.7 mi ENE 4.6 mph - N/A   Overcast
11:20 AM 39.2 °F 37.0 °F 37.4 °F 93% 30.36 in 3.7 mi Variable 3.5 mph - N/A   Overcast
11:50 AM 39.2 °F 35.9 °F 37.4 °F 93% 30.36 in 4.3 mi NE 4.6 mph - N/A   Overcast
12:20 PM 39.2 °F 35.9 °F 37.4 °F 93% 30.33 in 4.3 mi ENE 4.6 mph - N/A   Overcast
12:50 PM 39.2 °F 37.0 °F 37.4 °F 93% 30.33 in 5.0 mi NE 3.5 mph - N/A   Overcast
1:20 PM 39.2 °F 37.0 °F 37.4 °F 93% 30.33 in 5.0 mi ENE 3.5 mph - N/A   Overcast
1:50 PM 41.0 °F 39.0 °F 37.4 °F 87% 30.30 in 5.0 mi Variable 3.5 mph - N/A   Overcast
2:20 PM 41.0 °F 39.0 °F 39.2 °F 93% 30.30 in 5.6 mi Variable 3.5 mph - N/A   Mostly Cloudy
2:50 PM 41.0 °F 38.0 °F 37.4 °F 87% 30.30 in 5.6 mi ENE 4.6 mph - N/A   Mostly Cloudy
3:20 PM 41.0 °F - 37.4 °F 87% 30.30 in 5.6 mi Variable 2.3 mph - N/A   Mostly Cloudy
3:50 PM 41.0 °F 38.0 °F 37.4 °F 87% 30.30 in 6.2 mi SSW 4.6 mph - N/A   Mostly Cloudy
4:20 PM 41.0 °F - 37.4 °F 87% 30.30 in 6.2 mi Variable 2.3 mph - N/A   Mostly Cloudy
4:50 PM 41.0 °F 35.2 °F 33.8 °F 76% 30.30 in 6.2 mi SSE 9.2 mph - N/A   Mostly Cloudy
5:20 PM 41.0 °F 34.7 °F 33.8 °F 76% 30.27 in 6.2 mi SSW 10.4 mph - N/A   Mostly Cloudy
5:50 PM 39.2 °F 34.2 °F 33.8 °F 81% 30.27 in 6.2 mi SSE 6.9 mph - N/A   Mostly Cloudy
6:20 PM 37.4 °F 33.8 °F 32.0 °F 81% 30.27 in 6.2 mi SSE 4.6 mph - N/A   Mostly Cloudy
6:50 PM 35.6 °F 30.7 °F 30.2 °F 81% 30.27 in 6.2 mi ESE 5.8 mph - N/A   Partly Cloudy
7:20 PM 35.6 °F 30.7 °F 30.2 °F 81% 30.27 in - ESE 5.8 mph - N/A   Clear
7:50 PM 35.6 °F 31.7 °F 30.2 °F 81% 30.27 in - ESE 4.6 mph - N/A   Clear
8:20 PM 33.8 °F 28.6 °F 30.2 °F 87% 30.27 in - East 5.8 mph - N/A   Clear
8:50 PM 33.8 °F 28.6 °F 28.4 °F 81% 30.27 in - SE 5.8 mph - N/A   Clear
9:20 PM 33.8 °F 30.8 °F 28.4 °F 81% 30.27 in - ESE 3.5 mph - N/A   Clear
9:50 PM 33.8 °F 30.8 °F 30.2 °F 87% 30.27 in - East 3.5 mph - N/A   Clear
10:20 PM 32.0 °F 28.7 °F 30.2 °F 93% 30.27 in - Variable 3.5 mph - N/A   Clear
10:50 PM 32.0 °F 28.7 °F 28.4 °F 87% 30.27 in 5.0 mi ENE 3.5 mph - N/A   Unknown
11:20 PM 30.2 °F 25.4 °F 28.4 °F 93% 30.27 in 4.3 mi NE 4.6 mph - N/A   Unknown
11:50 PM 28.4 °F - 26.6 °F 93% 30.27 in - East 2.3 mph - N/A   Haze